Location: Flumini Bellu
(39.6333°N, 8.7000°E)
Time: 15:48:58
(UTC+00:00)

Daily predictions for brighter satellites

Satellite Brightness Start Highest point End
(mag) Time Altitude Azimuth Time Altitude Azimuth Time Altitude Azimuth
BREEZE M DEB (TANK) 3.5 17:23:15 10° W 17:25:54 54° N 17:38:02 10° ENE
Cosmos 1833 Rocket 3.5 17:43:03 10° NNW 17:48:32 56° WSW 17:53:59 10° S
SL-08 RB Rocket 4.0 17:45:05 10° SE 17:49:17 43° ENE 17:53:31 10° N
ATLAS CENTAUR R/B 3.3 17:46:43 10° N 17:50:02 19° NE 17:53:25 10° E
Cosmos 1461 4.2 17:47:01 10° N 17:50:08 21° NE 17:53:11 10° E
Landsat 5 4.2 17:46:46 10° N 17:50:37 56° WNW 17:54:32 10° SSW
Cosmos 1674 Rocket 4.1 17:48:40 10° N 17:52:42 37° ENE 17:56:42 10° SE
USA 215 4.0 17:47:44 10° E 17:53:40 38° NNE 17:59:35 10° NW
Cosmos 1340 3.3 17:50:12 10° N 17:53:40 33° ENE 17:57:06 10° SE
BREEZE-M DEB (TANK) 3.5 17:49:41 10° WNW 17:56:45 49° SW 17:59:33 10° SSE
Spot 2 4.0 17:53:00 10° SSE 17:57:20 84° ENE 18:01:31 10° NNW
COSMO-SKYMED 1 3.6 17:53:43 10° N 17:57:57 52° WNW 18:02:09 10° SSW
Cosmos 1842 3.2 17:54:45 10° N 17:58:42 77° E 18:02:37 10° S
Cosmos 968 Rocket 4.3 17:57:05 10° SSW 18:02:14 59° WNW 18:07:27 10° N
CZ-4B R/B 2.2 18:02:00 10° NE 18:04:38 25° E 18:07:17 10° SSE
Cosmos 2221 Rocket 3.8 18:05:40 10° N 18:10:05 77° W 18:14:28 10° S
CZ-4 R/B 1.2 18:07:46 10° SSE 18:11:36 74° ENE 18:15:26 10° N
Cosmos 2082 Rocket 2.4 18:07:08 10° NNW 18:12:51 76° WSW 18:18:29 10° SSE
Cosmos 1733 Rocket 3.6 18:08:55 10° SSW 18:13:10 61° W 18:17:27 10° N
Lacrosse 5 rocket 3.2 18:09:58 10° NNW 18:13:23 20° NNE 18:16:05 13° ENE
Okean 2 3.3 18:11:15 10° N 18:15:18 61° E 18:19:20 10° SSE
Cosmos 1975 3.1 18:12:21 10° SSW 18:16:18 70° W 18:20:16 10° N
Feng Yun 1-1 Rocket 4.3 18:10:59 10° S 18:16:23 79° WSW 18:21:47 10° NNW
Cosmos 1503 Rocket 3.9 18:12:35 10° S 18:17:46 72° ESE 18:22:56 10° NNE
HJ-1C 3.2 18:15:14 10° SSE 18:18:30 70° ENE 18:21:46 10° N
Cosmos 1782 Rocket 4.4 18:16:29 10° SSE 18:20:15 28° E 18:24:02 10° NNE
ARGOS 3.6 18:15:25 10° S 18:20:42 64° WSW 18:26:03 10° NNW
H-2A R/B 2.1 18:18:37 10° N 18:22:49 79° WNW 18:26:56 10° SSW
Geosat 4.3 18:21:01 10° NNE 18:26:02 71° WNW 18:31:02 10° SW
Okean-O 2.6 18:24:37 10° SSE 18:29:00 65° ENE 18:33:24 10° N
USA 276 4.5 18:26:50 10° WNW 18:29:12 19° NNW 18:31:34 10° NNE
Cosmos 1400 Rocket 2.7 18:25:54 10° S 18:29:58 70° E 18:34:02 10° NNE
SJ-6B 4.1 18:29:27 22° E 18:30:28 24° ENE 18:33:48 10° NNE
Cosmos 1777 Rocket 4.4 18:25:49 10° S 18:30:39 38° ESE 18:35:29 10° NE
Cosmos 1943 Rocket 2.2 18:25:16 10° SSW 18:30:49 89° WNW 18:36:28 10° NNE
OAO 2 Rocket 4.3 18:25:58 10° W 18:30:55 40° SSW 18:34:26 18° SE
Cosmos 1354 Rocket 3.9 18:27:51 10° SSW 18:33:06 83° ESE 18:38:22 10° NNE
Cosmos 2074 Rocket 4.0 18:27:06 10° S 18:33:20 89° W 18:39:40 10° N
Cosmos 2369 Rocket 2.4 18:29:54 10° S 18:35:15 45° ESE 18:40:37 10° NE
GENESIS II 4.1 18:34:10 10° SSW 18:37:54 56° ESE 18:41:38 10° NE
Cosmos 2297 4.1 18:35:15 10° SSW 18:40:53 67° WNW 18:46:36 10° NNE
OBJECT-B 1.4 18:42:53 34° ENE 18:42:53 34° ENE 18:45:36 10° N
CZ-2C R/B 4.5 18:37:55 10° N 18:42:52 35° WNW 18:47:53 10° SW
Resurs 01 Rocket 3.8 18:46:34 11° NE 18:46:34 11° NE 18:47:09 10° NE
Cosmos 1805 3.7 18:45:04 35° ESE 18:45:37 37° E 18:49:14 10° NNE
CSL-04 Debris 4.1 18:41:33 10° SSE 18:46:57 80° ENE 18:52:22 10° NNW
USA 186 2.5 18:51:22 33° NNE 18:51:22 33° NNE 18:53:22 10° N
Cosmos 1975 Rocket 3.5 18:47:42 10° N 18:51:52 39° ENE 18:52:26 37° E
PSLV R/B 3.8 18:48:24 10° NNE 18:52:34 82° ESE 18:56:40 10° S
Meteor 1-12 Rocket 4.3 18:51:37 10° S 18:57:35 68° E 19:03:33 10° NNE
COSMOS 2455 2.8 18:52:25 10° NNW 18:58:29 89° WSW 19:02:30 22° SSE
Cosmos 1707 4.0 18:55:58 10° NNW 18:59:40 41° W 19:03:20 10° SSW
Atlas Centaur 2 3.6 18:53:01 10° SW 19:00:48 40° S 19:04:05 29° SE
ISS -0.9 18:59:19 10° NW 19:00:57 13° NNW 19:02:37 10° NNE
Cosmos 2263 4.2 18:56:42 10° S 19:02:08 54° ESE 19:07:35 10° NNE
Cosmos 1674 2.5 18:59:33 10° N 19:03:16 87° E 19:04:12 49° S
CZ-3 Stage 3 3.9 18:30:17 10° WSW 19:04:03 47° S 19:08:07 30° SE
Cosmos 773 Rocket 3.9 19:02:11 10° NNW 19:07:28 75° ENE 19:09:30 38° SSE
SeaSat 1 2.4 19:08:11 45° SE 19:09:34 68° ENE 19:14:29 10° NNW
KORONAS-FOTON 4.1 19:10:30 10° NNW 19:14:14 63° W 19:15:20 41° SSW
Cosmos 1656 Rocket 3.5 19:09:55 10° S 19:15:27 68° ESE 19:20:58 10° NNE
Cosmos 962 Rocket 4.3 19:11:06 10° S 19:17:18 77° E 19:23:28 10° N
Cosmos 1346 Rocket 2.8 19:19:10 10° NNW 19:23:10 79° W 19:23:10 79° W
USA 281 3.7 19:17:00 10° NE 19:31:50 - S 19:21:34 37° ENE
Cosmos 1733 3.9 19:24:41 45° N 19:24:41 45° N 19:27:26 10° N
Cosmos 1626 2.9 19:24:35 10° NNW 19:27:25 49° NNW 19:27:25 49° NNW
Cosmos 1461 4.1 19:25:39 10° NW 19:29:12 32° WSW 19:29:56 30° SW
ATLAS CENTAUR R/B 2.0 19:24:36 10° NW 19:29:18 64° WSW 19:30:02 55° SSW
Ariane Rocket 3.4 19:30:42 48° NE 19:30:42 48° NE 19:34:53 10° N
SJ 16-02 1.6 19:29:11 10° SSW 19:33:33 66° WNW 19:37:59 10° NNE
USA 215 3.3 19:34:10 45° SSE 19:36:20 73° SW 19:42:55 10° NW
Cosmos 1538 Rocket 4.1 19:37:01 10° NNW 19:41:54 68° NNE 19:41:54 68° NNE
SL-8 Rocket 3.9 19:47:14 42° S 19:49:34 86° W 19:55:55 10° N
Meteor 2-20 4.3 19:45:32 10° N 19:51:40 89° E 19:51:55 83° SSE
Lacrosse 5 rocket 2.5 19:48:33 10° NW 19:51:42 44° NW 19:51:42 44° NW
BREEZE-M DEB (TANK) 4.3 19:38:13 10° WNW 19:55:53 78° NNE 19:56:49 67° ENE
MOS 1 4.3 19:57:42 76° WSW 19:57:46 76° WSW 20:03:27 10° NNW
Meteor 1-24 Rocket 4.4 19:53:08 10° N 19:56:39 41° N 19:56:39 41° N
IRS-1A Rocket 4.3 19:58:33 78° WSW 19:58:37 79° WSW 20:04:32 10° NNW
Cosmos 1339 Rocket 4.5 19:55:18 10° N 20:01:28 74° W 20:01:58 69° SW
Cosmos 2369 Rocket 4.2 20:14:47 10° WSW 20:19:27 26° NW 20:24:09 10° N
Resurs 01 Rocket 3.9 20:24:08 21° NNW 20:24:08 21° NNW 20:25:37 10° NNW
FALCON 9 R/B 4.3 19:28:00 10° W 20:28:53 52° SSW 20:31:20 48° S
Atlas Centaur 2 4.2 20:42:11 10° WSW 20:46:40 30° SW 20:46:40 30° SW
USA 281 4.4 21:01:40 10° N 21:07:33 36° WNW 21:08:20 35° WNW
